Location: Detroit
(42.3310°N, 83.0460°W)
Time: 11:07:42
(UTC-05:00)

Tiros 1 despin weight - Pass Details

Date: 03 December 2023
Orbit: 581 x 624 km, 48.2° (Epoch: 01 March)

Event Time Altitude Azimuth Distance (km) Brightness Sun altitude
Rises 18:28:42 0° 219° (SW) 2,797 ? -15.9°
Reaches altitude 10° 18:31:04 10° 212° (SSW) 1,895 ? -16.3°
Maximum altitude 18:35:07 40° 143° (SE) 867 ? -17.0°
Enters shadow 18:36:23 32° 104° (ESE) 1,015 ? -17.3°
